Location: York
(53.9600°N, 1.0873°W)
Time: 17:44:32
(UTC+01:00)

ISS - Visible Passes

Search period start: 16 May 2021 00:00
Search period end: 26 May 2021 00:00
Orbit: 417 x 422 km, 51.6° (Epoch: 15 May)

Date Brightness Start Highest point End Pass type
(mag) Time Alt. Az. Time Alt. Az. Time Alt. Az.
16 May -3.7 00:15:16 10° WSW 00:18:34 54° S 00:21:53 10° E visible
16 May -3.6 01:51:54 10° W 01:55:11 49° SSW 01:58:28 10° ESE visible
16 May -2.4 03:28:57 10° W 03:31:31 20° SSW 03:34:04 10° SSE visible
16 May -2.3 21:52:22 10° SSW 21:54:51 19° SSE 21:57:20 10° E visible
16 May -3.6 23:27:54 10° WSW 23:31:10 48° SSE 23:34:27 10° E visible
17 May -3.7 01:04:28 10° W 01:07:47 55° S 01:11:06 10° ESE visible
17 May -2.8 02:41:21 10° W 02:44:13 26° SSW 02:47:06 10° SSE visible
17 May -3.3 22:40:36 10° SW 22:43:47 40° SSE 22:46:59 10° E visible
18 May -3.8 00:17:02 10° W 00:20:22 58° S 00:22:52 16° ESE visible
18 May -2.5 01:53:48 10° W 01:55:46 26° WSW 01:55:46 26° WSW visible
18 May -3.0 21:53:22 10° SW 21:56:25 32° SSE 21:59:30 10° E visible
18 May -3.8 23:29:38 10° WSW 23:32:56 58° S 23:36:17 10° E visible
19 May -3.4 01:06:19 10° W 01:09:22 41° SSW 01:09:22 41° SSW visible
19 May -3.7 22:42:13 10° WSW 22:45:31 54° S 22:48:50 10° E visible
20 May -3.6 00:18:51 10° W 00:22:08 49° SSW 00:23:11 34° SE visible
20 May -1.3 01:55:55 10° W 01:56:07 11° WSW 01:56:07 11° WSW visible
20 May -3.5 21:54:51 10° WSW 21:58:06 48° SSE 22:01:23 10° E visible
20 May -3.7 23:31:24 10° W 23:34:43 55° S 23:37:05 17° ESE visible
21 May -2.2 01:08:17 10° W 01:10:01 21° WSW 01:10:01 21° WSW visible
21 May -3.7 22:43:58 10° W 22:47:17 58° S 22:50:37 10° ESE visible
22 May -3.1 00:20:43 10° W 00:23:48 33° SSW 00:23:58 33° SSW visible
22 May -3.6 21:56:31 10° WSW 21:59:51 58° S 22:03:10 10° E visible
22 May -3.3 23:33:13 10° W 23:36:25 41° SSW 23:37:56 25° SE visible
23 May -1.3 01:10:40 10° WSW 01:10:52 11° WSW 01:10:52 11° WSW visible
23 May -3.5 22:45:45 10° W 22:49:01 49° SSW 22:51:57 12° ESE visible
24 May -2.1 00:22:49 10° W 00:24:53 19° SW 00:24:53 19° SW visible
24 May -3.5 21:58:17 10° W 22:01:35 55° S 22:04:54 10° ESE visible
24 May -2.5 23:35:09 10° W 23:38:02 26° SSW 23:38:55 23° S visible
25 May -2.9 22:47:35 10° W 22:50:40 33° SSW 22:52:58 15° SE visible
